Find Starlink 34399

NORAD ID: 64444 Int'l Des: 2025-130 Owner: SPXS Country: US Constellation: starlink operational
LEOCIRCULAR

現在のビュー

3D地球を読み込み中...

About Starlink 34399

Starlink 34399 (NORAD 64444) is a starlink constellation satellite (v2 mini) launched Jun 18, 2025 by SPXS of US. It operates in LEO, CIRCULAR orbit with a mass of 575.00 kg.

Starlink 34399について

説明を読み込み中...

次回通過

Passes for default location (London). Set your location on the main map for personalized predictions.

高度履歴

Loading altitude history...

軌道要素

1 64444U 25130G 26195.20186370 -.00000212 00000-0 48648-5 0 9994
2 64444 53.1567 218.7058 0001127 82.1171 277.9959 15.34386021 60101
Epoch: Jul 14, 2026 • Age: 4 hours

現在のステータス

高度 468.4 km
遠地点 / 近地点 N/A
速度 7.63 km/s
衛星直下点 -19.06°S, 12.24°W
打ち上げ日 Jun 18, 2025
運用期間 1 year
タイプ internet

技術仕様

分類 Payload
質量 575.00 kg
乾燥質量 530.00 kg
総質量 575.00 kg
長さ 0.30 m
直径 4.10 m
スパン 29.00 m
形状 Box + pan
製造者 SPXS
バスタイプ Starlink V2MO
フェーズステータス In Orbit
所有者/国 SPXS/US

Most Searched